sat.trackr.live / text

‹ back to catalog

STARLINK-34918

NORAD 65331 · 2025-189J

PAYLOAD ACTIVE UNKNOWN

§ Identity

Operator
Country
US
Launch date
2025-08-27
Launch site
AFETR
Launch vehicle
Mass (kg)
RCS (m²)

Purposes: comms

External: N2YO · Heavens-Above · Gunter

§ Orbital elements

Epoch: 2026-09-20T13:04:18.566976Z

Period
94.01 min
Inclination
53.1581°
Eccentricity
0.0001526
Mean motion
15.31738682 rev/d
Perigee alt
469.6 km
Apogee alt
471.7 km
Semi-major
6,848.8 km
B*
4.4439e-4
RAAN
19.9728°
Arg perigee
95.5802°
Mean anomaly
264.5373°
Rev number
6,090

§ Raw data

STARLINK-349181 65331U 25189J   26263.54465934  .00013466  00000+0  44439-3 0  99982 65331  53.1581  19.9728 0001526  95.5802 264.5373 15.31738682 60901

JSON: /api/v1/satellites/65331 · /tle

For live sub-satellite position, see the globe view (requires WebGL).

§ Visibility from observer

Set your observer location to see the next 7 days of passes ≥ 10°. The values pass through the URL so the page stays shareable.

No JS? Fill the form by hand. The geolocation button needs JavaScript.